AirNav   TITAN Aviation Fuels
 
 1278 users online  

13MS Greener Pastures Airpark
Carriere, Mississippi, USA

GOING TO CARRIERE?


FAA INFORMATION EFFECTIVE 16 JUNE 2022

Location

FAA Identifier: 13MS
Lat/Long: 30-38-00.0000N 089-39-50.0000W
30-38.000000N 089-39.833333W
30.6333333,-89.6638889
(estimated)
Elevation: 180 ft. / 55 m (estimated)
Variation: 01E (2000)
From city: 1 mile NW of CARRIERE, MS
Time zone: UTC -5 (UTC -6 during Standard Time)
Zip code: 39426

Airport Operations

Airport use: Private use. Permission required prior to landing
Activation date: 09/2002
Control tower: no
ARTCC: HOUSTON CENTER
FSS: GREENWOOD FLIGHT SERVICE STATION
Attendance: UNATNDD
Wind indicator: yes
Segmented circle: no

Airport Communications

WX AWOS-3PT at MJD (9 nm S): 119.075 (601 798 4136)
WX AWOS-3PT at BXA (15 nm NW): 118.025 (985-732-6224)
WX ASOS at ASD (19 nm SW): 132.475 (985-643-7263)
WX AWOS-3PT at HSA (19 nm SE): 118.375 (228-466-9320)

Airport Services

Runway Information

Runway 18/36

Dimensions: 3000 x 100 ft. / 914 x 30 m
Surface: turf
RUNWAY 18  RUNWAY 36
Traffic pattern: rightleft
Obstructions: 55 ft. trees, 1000 ft. from runway
50 FT TREES 300 FT EAST OF RY AND 40 FT TREES WEST OF RY.
none

Airport Ownership and Management from official FAA records

Ownership: Privately-owned
Owner: KARL JAY SCOTT
PO BOX 235
CARRIERE, MS 39426
Phone 601-798-3489
Manager: KARL JAY SCOTT
PO BOX 235
CARRIERE, MS 39426
Phone 601-798-3489

Airport Operational Statistics

Aircraft based on the field: 2
Single engine airplanes: 2
    

Additional Remarks

FOR CD CTC GULFPORT APCH AT 228-265-6151, WHEN APCH CLSD CTC HOUSTON ARTCC AT 281-230-5622.

Instrument Procedures

There are no published instrument procedures at 13MS.

Some nearby airports with instrument procedures:

KMJD - Picayune Municipal Airport (9 nm S)
M13 - Poplarville/Pearl River County Airport (12 nm NE)
KBXA - George R Carr Memorial Air Field (15 nm NW)
KASD - Slidell Airport (19 nm SW)
KHSA - Stennis International Airport (19 nm SE)
 
Loc | Ops | Rwys | IFR | FBO | Links
Com | Nav | Svcs | Stats | Notes
Area around 13MS (Greener Pastures Airpark)
 
Road maps at: MapQuest Bing Google
 
Aerial photo
No photo
 
Sectional chart

 
Airport distance calculator
Flying to Greener Pastures Airpark? Find the distance to fly.

From to 13MS

Sunrise and sunset
Times for 02-Jul-2022
 Local
(UTC-5)
 Zulu
(UTC)
Morning civil twilight05:3310:33
Sunrise06:0111:01
Sunset20:0401:04
Evening civil twilight20:3201:32

Current date and time
Zulu (UTC)  02-Jul-2022 21:17:22
Local (UTC-5)  02-Jul-2022 16:17:22
 
METAR
KMJD 
9nm S 
022055Z AUTO 14006G11KT 10SM VCTS CLR 30/24 A2999 RMK AO2 LTG DSNT ALQDS
KBXA 
15nm NW 
022055Z AUTO 15004KT 10SM SCT032 SCT041 BKN120 31/23 A3000 RMK AO2 T03070234
KHSA 
19nm SE 
022050Z 15005KT 10SM VCTS CLR 28/25 A3000
TAF
KASD 
24nm S 
021733Z 0218/0318 20007KT P6SM VCTS FEW035CB FEW090 TEMPO 0219/0221 2SM TSRA BR BKN020CB FM030100 00000KT P6SM SCT020 BKN250
NOTAMs
Click for the latest NOTAMs
NOTAMs are issued by the DoD/FAA and will open in a separate window not controlled by AirNav.

 

 
 

Would you like to see your business listed on this page?

 If your business provides an interesting product or service to pilots, flight crews, aircraft, or users of the Greener Pastures Airpark, you should consider listing it here.  To start the listing process, click on the button below
 
Add a business
 

Other Pages about Greener Pastures Airpark

Update a link
 
Copyright © AirNav, LLC. All rights reserved. Privacy Policy  Contact